TimeCST,TemperatureF,Dew PointF,Humidity,Sea Level PressureIn,VisibilityMPH,Wind Direction,Wind SpeedMPH,Gust SpeedMPH,PrecipitationIn,Events,Conditions,WindDirDegrees,DateUTC
12:00 AM,66.2,64.4,94,30.03,-9999.0,ENE,5.8,-,N/A,,Clear,60,2013-08-25 06:00:00
1:00 AM,-9999,-9999,N/A,30.03,-9999.0,NNE,4.6,-,N/A,,Clear,20,2013-08-25 07:00:00
2:00 AM,66.2,62.6,88,30.01,-9999.0,ENE,2.3,-,N/A,,Clear,70,2013-08-25 08:00:00
3:00 AM,64,63,94,29.90,12,SE,3.5,,,,Scattered Clouds,140,2013-08-25 09:00:00
3:00 AM,64.4,62.6,94,30.00,-9999.0,SE,3.5,-,N/A,,Clear,140,2013-08-25 09:00:00
4:00 AM,64.4,62.6,94,30.02,-9999.0,NNE,3.5,-,N/A,,Clear,20,2013-08-25 10:00:00
5:00 AM,64.4,62.6,94,30.03,-9999.0,East,5.8,-,N/A,,Clear,90,2013-08-25 11:00:00
6:00 AM,64.4,60.8,88,30.04,6.2,ENE,4.6,-,N/A,,Mostly Cloudy,60,2013-08-25 12:00:00
7:00 AM,69.8,62.6,78,30.05,6.2,ENE,11.5,-,N/A,,Mostly Cloudy,60,2013-08-25 13:00:00
8:00 AM,73.4,64.4,73,30.06,6.2,ENE,10.4,-,N/A,,Mostly Cloudy,60,2013-08-25 14:00:00
9:00 AM,77,64,56,29.90,12,ESE,15.0,,,,Scattered Clouds,110,2013-08-25 15:00:00
9:00 AM,77.0,64.4,65,30.06,6.2,ESE,15.0,-,N/A,,Mostly Cloudy,110,2013-08-25 15:00:00
10:00 AM,77.0,62.6,61,30.05,6.2,SE,8.1,19.6,N/A,,Mostly Cloudy,130,2013-08-25 16:00:00
11:00 AM,77.0,62.6,61,30.06,6.2,ESE,15.0,-,N/A,,Mostly Cloudy,120,2013-08-25 17:00:00
12:00 PM,75,66,68,,12,WNW,9.2,,,,Overcast,290,2013-08-25 18:00:00
12:00 PM,75.2,66.2,73,30.05,6.2,WNW,9.2,-,N/A,,Mostly Cloudy,290,2013-08-25 18:00:00
1:00 PM,75.2,68.0,78,30.03,6.2,West,12.7,-,N/A,,Mostly Cloudy,280,2013-08-25 19:00:00
2:00 PM,73.4,66.2,78,30.01,6.2,WSW,9.2,-,N/A,Rain,Light Rain,250,2013-08-25 20:00:00
3:00 PM,75,66,68,29.85,12,West,4.6,,,,Overcast,280,2013-08-25 21:00:00
3:00 PM,75.2,66.2,73,30.00,6.2,West,4.6,-,N/A,,Mostly Cloudy,280,2013-08-25 21:00:00
4:00 PM,77.0,68.0,74,29.98,-9999.0,West,3.5,-,N/A,,Clear,260,2013-08-25 22:00:00
5:00 PM,77.0,62.6,61,30.00,-9999.0,SSE,2.3,-,N/A,,Clear,160,2013-08-25 23:00:00
6:00 PM,71,68,87,29.87,12,WSW,5.8,,,,Mist,250,2013-08-26 00:00:00
6:00 PM,69.8,69.8,100,30.02,6.2,WSW,5.8,-,N/A,,Mostly Cloudy,250,2013-08-26 00:00:00
7:00 PM,69.8,68.0,94,30.04,6.2,West,2.3,-,N/A,,Scattered Clouds,260,2013-08-26 01:00:00
8:00 PM,69.8,68.0,94,30.06,6.2,SW,2.3,-,N/A,Fog,Partly Cloudy,230,2013-08-26 02:00:00
9:00 PM,69.8,68.0,94,30.07,6.2,WNW,3.5,-,N/A,,Scattered Clouds,300,2013-08-26 03:00:00
10:00 PM,69.8,66.2,88,30.07,-9999.0,NNE,3.5,-,N/A,,Clear,30,2013-08-26 04:00:00
11:00 PM,69.8,62.6,78,30.06,-9999.0,ENE,8.1,-,N/A,,Clear,70,2013-08-26 05:00:00